Eindhoven, Netherlands

11:09 AM CEST on May 26, 2018 (GMT +0200)
Eindhoven Air Base

Weather History for EHEH - October, 2012

Change the Weather History Date:

Thursday, October 11, 2012

  Actual Average Record
Temperature  
Mean Temperature 48 °F -  
Max Temperature 58 °F 53 °F 69 °F (2005)
Min Temperature 37 °F 41 °F 31 °F (2016)
Degree Days  
Heating Degree Days 18    
Moisture  
Dew Point 42 °F    
Average Humidity 77    
Maximum Humidity 100    
Minimum Humidity 47    
Precipitation  
Precipitation 0.16 in - - ()
Sea Level Pressure  
Sea Level Pressure 29.82 in    
Wind  
Wind Speed 5 mph ()    
Max Wind Speed 10 mph    
Max Gust Speed -    
Visibility 7.0 miles    
Events Rain    
Averages and records for this station are not official NWS values.
T = Trace of Precipitation, MM = Missing Value Source: Averaged Metar Reports

Daily Weather History Graph

Daily Weather History Graph

Search for Another Location

Airport or City:

Astronomy

Oct. 11, 2012 Rise Set
Actual Time 7:55 AM CEST 6:53 PM CEST
Civil Twilight 7:22 AM CEST 7:26 PM CEST
Nautical Twilight 6:43 AM CEST 8:04 PM CEST
Astronomical Twilight 6:04 AM CEST 8:43 PM CEST
Moon 2:48 AM CEST (10/11) 4:45 PM CEST (10/11)
Length of Visible Light 12h 04m
Length of Day
10h 57m
Waning Crescent, 20% of the Moon is Illuminated
Oct 11
Waning Crescent
Oct 15
New
Oct 22
First Quarter
Oct 29
Full
Nov 7
Last Quarter

Hourly Weather History & Observations

Time (CEST) Temp. Windchill Dew Point Humidity Pressure Visibility Wind Dir Wind Speed Gust Speed Precip Events Conditions
12:25 AM 39.2 °F - 37.4 °F 93% 29.98 in 6.2 mi East 2.3 mph - N/A   Unknown
12:55 AM 39.2 °F - 39.2 °F 100% 29.98 in 6.2 mi East 1.2 mph - N/A   Unknown
1:25 AM 37.4 °F - 37.4 °F 100% 29.98 in 6.2 mi East 2.3 mph - N/A   Unknown
1:55 AM 42.8 °F 41.1 °F 42.8 °F 100% 29.98 in 6.2 mi East 3.5 mph - N/A   Unknown
2:00 AM 43 °F - 43 °F 99% 29.98 in 12 mi East 4.5 mph - -   Partly Cloudy
2:25 AM 42.8 °F 40.1 °F 41.0 °F 93% 29.95 in 6.2 mi East 4.6 mph - N/A   Unknown
2:55 AM 42.8 °F 40.1 °F 39.2 °F 87% 29.95 in 6.2 mi East 4.6 mph - N/A   Unknown
3:25 AM 42.8 °F 41.1 °F 39.2 °F 87% 29.95 in 6.2 mi East 3.5 mph - N/A   Partly Cloudy
3:55 AM 42.8 °F 40.1 °F 39.2 °F 87% 29.92 in 6.2 mi East 4.6 mph - N/A   Partly Cloudy
4:25 AM 41.0 °F 39.0 °F 39.2 °F 93% 29.92 in 6.2 mi East 3.5 mph - N/A   Unknown
4:55 AM 42.8 °F 39.3 °F 39.2 °F 87% 29.92 in 6.2 mi ESE 5.8 mph - N/A   Unknown
5:00 AM 42 °F - 39 °F 84% 29.93 in 12 mi ESE 4.5 mph - -   Scattered Clouds
5:25 AM 42.8 °F 39.3 °F 39.2 °F 87% 29.92 in 6.2 mi ESE 5.8 mph - N/A   Unknown
5:55 AM 41.0 °F 37.1 °F 39.2 °F 93% 29.92 in 6.2 mi ESE 5.8 mph - N/A   Unknown
6:25 AM 41.0 °F 38.0 °F 39.2 °F 93% 29.89 in 6.2 mi ESE 4.6 mph - N/A   Unknown
6:48 AM 41.0 °F 38.0 °F 37.4 °F 87% 29.89 in 6.2 mi ESE 4.6 mph - N/A   Unknown
6:55 AM 41.0 °F 38.0 °F 37.4 °F 87% 29.89 in 6.2 mi ESE 4.6 mph - N/A   Unknown
7:25 AM 41.0 °F 37.1 °F 37.4 °F 87% 29.89 in 6.2 mi ESE 5.8 mph - N/A   Unknown
7:55 AM 41.0 °F 37.1 °F 37.4 °F 87% 29.89 in 6.2 mi ESE 5.8 mph - N/A   Unknown
8:00 AM 40 °F - 38 °F 88% 29.90 in 14 mi SE 6.7 mph - -   Partly Cloudy
8:25 AM 41.0 °F 37.1 °F 37.4 °F 87% 29.89 in 6.2 mi ESE 5.8 mph - N/A   Unknown
8:55 AM 42.8 °F 39.3 °F 39.2 °F 87% 29.89 in 6.2 mi ESE 5.8 mph - N/A   Unknown
9:25 AM 42.8 °F 39.3 °F 39.2 °F 87% 29.86 in 6.2 mi ESE 5.8 mph - N/A   Unknown
9:55 AM 44.6 °F 40.7 °F 39.2 °F 81% 29.86 in 6.2 mi ESE 6.9 mph - N/A   Unknown
10:25 AM 46.4 °F 42.4 °F 41.0 °F 81% 29.86 in 6.2 mi ESE 8.1 mph - N/A   Unknown
10:55 AM 48.2 °F - 41.0 °F 76% 29.86 in 6.2 mi ESE 8.1 mph - N/A   Unknown
11:00 AM 49 °F - 41 °F 67% 29.87 in 16 mi ESE 6.7 mph - -  
11:25 AM 50.0 °F - 42.8 °F 76% 29.86 in 6.2 mi SE 6.9 mph - N/A   Unknown
11:55 AM 51.8 °F - 42.8 °F 71% 29.83 in 6.2 mi ESE 5.8 mph - N/A   Unknown
12:25 PM 53.6 °F - 42.8 °F 67% 29.83 in 6.2 mi ESE 6.9 mph - N/A   Unknown
12:55 PM 53.6 °F - 42.8 °F 67% 29.83 in 6.2 mi ESE 8.1 mph - N/A   Unknown
1:25 PM 55.4 °F - 42.8 °F 63% 29.80 in 6.2 mi ESE 8.1 mph - N/A   Partly Cloudy
1:55 PM 57.2 °F - 42.8 °F 59% 29.80 in 6.2 mi ESE 8.1 mph - N/A   Unknown
2:00 PM 58 °F - 43 °F 47% 29.81 in 14 mi ESE 6.7 mph - -   Partly Cloudy
2:25 PM 57.2 °F - 42.8 °F 59% 29.80 in 6.2 mi ESE 8.1 mph - N/A   Unknown
2:55 PM 59.0 °F - 44.6 °F 59% 29.77 in 6.2 mi East 8.1 mph - N/A   Unknown
3:25 PM 57.2 °F - 42.8 °F 59% 29.77 in 6.2 mi East 9.2 mph - N/A   Unknown
3:55 PM 57.2 °F - 44.6 °F 63% 29.77 in 6.2 mi ESE 9.2 mph - N/A   Partly Cloudy
4:25 PM 57.2 °F - 42.8 °F 59% 29.74 in 6.2 mi East 10.4 mph - N/A   Overcast
4:41 PM 59.0 °F - 42.8 °F 55% 29.74 in 6.2 mi ESE 9.2 mph - N/A   Mostly Cloudy
4:55 PM 57.2 °F - 42.8 °F 59% 29.74 in 6.2 mi East 10.4 mph - N/A   Scattered Clouds
5:00 PM 58 °F - 44 °F 48% 29.75 in 15 mi East 8.9 mph - -   Partly Cloudy
5:25 PM 57.2 °F - 42.8 °F 59% 29.74 in 6.2 mi ESE 8.1 mph - N/A   Unknown
5:55 PM 57.2 °F - 44.6 °F 63% 29.74 in 6.2 mi ESE 6.9 mph - N/A   Unknown
6:17 PM 55.4 °F - 44.6 °F 67% 29.71 in 6.2 mi East 6.9 mph - N/A   Unknown
6:25 PM 55.4 °F - 44.6 °F 67% 29.71 in 6.2 mi East 6.9 mph - N/A   Partly Cloudy
6:55 PM 55.4 °F - 44.6 °F 67% 29.71 in 6.2 mi East 5.8 mph - N/A   Unknown
7:25 PM 53.6 °F - 44.6 °F 72% 29.71 in 6.2 mi East 6.9 mph - N/A   Unknown
7:55 PM 53.6 °F - 44.6 °F 72% 29.71 in 6.2 mi East 8.1 mph - N/A   Unknown
8:00 PM 54 °F - 45 °F 64% 29.72 in 13 mi East 6.7 mph - -   Partly Cloudy
8:25 PM 53.6 °F - 46.4 °F 77% 29.68 in 6.2 mi East 6.9 mph - N/A   Scattered Clouds
8:55 PM 53.6 °F - 46.4 °F 77% 29.71 in 6.2 mi ESE 6.9 mph - N/A   Overcast
9:09 PM 53.6 °F - 46.4 °F 77% 29.71 in 6.2 mi ESE 6.9 mph - N/A   Overcast
9:25 PM 51.8 °F - 46.4 °F 82% 29.71 in 6.2 mi ESE 5.8 mph - N/A   Overcast
9:55 PM 51.8 °F - 46.4 °F 82% 29.68 in 6.2 mi ESE 6.9 mph - N/A   Overcast
10:25 PM 53.6 °F - 48.2 °F 82% 29.68 in 6.2 mi ESE 6.9 mph - N/A   Overcast
10:55 PM 53.6 °F - 48.2 °F 82% 29.68 in 6.2 mi SE 8.1 mph - N/A   Overcast
11:00 PM 53 °F - 48 °F 78% 29.70 in 10 mi SE 8.9 mph - -   Overcast
11:25 PM 51.8 °F - 48.2 °F 88% 29.68 in 3.7 mi SE 6.9 mph - N/A Rain Rain Showers
11:55 PM 51.8 °F - 50.0 °F 94% 29.68 in 3.1 mi ESE 5.8 mph - N/A Rain Rain Showers